Regional Weather Roundup
Issued by NWS

Home | Current Version | Previous Version | Graphics & Text | Print | Product List | Glossary On
Versions: 1 2 3 4 5 6 7 8 9 10 11 12 13 14 15 16 17 18 19 20 21 22 23 24 25 26 27 28 29 30 31 32 33 34 35 36 37 38 39 40 41 42 43 44 45 46 47 48 49 50
000
ASUS43 KFSD 020310
RWRSD

WEATHER ROUNDUP FOR SOUTH DAKOTA
NATIONAL WEATHER SERVICE SIOUX FALLS SD
1000 PM CDT SAT AUG 01 2015

NOTE: "FAIR" INDICATES FEW OR NO CLOUDS BELOW 12,000 FEET WITH NO
SIGNIFICANT WEATHER AND/OR OBSTRUCTIONS TO VISIBILITY.


SDZ001>005-009-010-012>017-020400-
NORTHWEST AND NORTH CENTRAL SOUTH DAKOTA

CITY           SKY/WX    TMP DP  RH WIND       PRES   REMARKS
BUFFALO          N/A     83  33  16 N17       29.80S
FAITH            N/A     75  45  34 S12       29.84S
MOBRIDGE       CLEAR     73  57  57 SE6       29.75S
$$

SDZ012>016-024>037-041>051-057-063-072>074-020400-
SOUTHWEST AND SOUTH CENTRAL SOUTH DAKOTA

CITY           SKY/WX    TMP DP  RH WIND       PRES   REMARKS
RAPID CTY ARPT CLEAR     74  57  55 S7        29.92R
PIERRE         CLEAR     77  57  50 SW6       29.80S
CUSTER         CLEAR     69  49  48 SE3       30.11S
ELLSWORTH AFB  CLEAR     76  59  56 S5        29.91
PHILIP         CLEAR     79  60  52 CALM      29.85R
PINE RIDGE     CLEAR     72  63  73 E8        29.97R
WINNER         FAIR      78  59  51 SW13      29.87R
$$

SDZ004>011-016>023-039-040-020400-
NORTHEAST SOUTH DAKOTA

CITY           SKY/WX    TMP DP  RH WIND       PRES   REMARKS
ABERDEEN       CLEAR     71  66  84 SW6       29.75R
WATERTOWN      CLEAR     74  65  73 S12       29.78S
BROOKINGS      CLOUDY    73  63  68 S10       29.83R
SISSETON         N/A     71  67  87 SE5       29.71S
$$

SDZ017-020-022-023-036>040-048>070-020400-
SOUTHEAST SOUTH DAKOTA

CITY           SKY/WX    TMP DP  RH WIND       PRES   REMARKS
SIOUX FALLS    PTCLDY    76  67  73 S13       29.84S
HURON          CLEAR     78  63  59 SW8       29.78R
CHAMBERLAIN    CLEAR     72  61  68 SW8       29.84R
MITCHELL       CLEAR     78  64  61 SW8       29.81R
YANKTON        CLEAR     77  64  65 S8        29.85R
$$

ABBREVIATIONS USED IN REMARKS
   TC - TEMPERATURE IN CELSIUS
  WCI - WIND CHILL INDEX
   HX - HEAT INDEX
  VSB - VISIBILITY




USA.gov is the U.S. government's official web portal to all federal, state and local government web resources and services.